Weather History for KFBG - February, 2012

Change the Weather History Date:

Monday, February 6, 2012

  Actual Average Record
Temperature  
Mean Temperature 42 °F -  
Max Temperature 48 °F 53 °F 77 °F (2008)
Min Temperature 37 °F 34 °F 17 °F (2007)
Degree Days  
Heating Degree Days 22    
Moisture  
Dew Point 34 °F    
Average Humidity 69    
Maximum Humidity 87    
Minimum Humidity 51    
Precipitation  
Precipitation 0.00 in - - ()
Sea Level Pressure  
Sea Level Pressure 30.21 in    
Wind  
Wind Speed 3 mph (NNE)    
Max Wind Speed 6 mph    
Max Gust Speed -    
Visibility 10 miles    
Events      
Averages and records for this station are not official NWS values.
T = Trace of Precipitation, MM = Missing Value Source: NWS Daily Summary

Daily Weather History Graph

Daily Weather History Graph

Search for Another Location

Airport or City:

Trip Planner

Search our weather history database for the weather conditions in past years. The results will help you decide how hot, cold, wet, or windy it might be!

Date:

Astronomy

Feb. 06, 2012 Rise Set
Actual Time 7:11 AM EST 5:48 PM EST
Civil Twilight 6:44 AM EST 6:15 PM EST
Nautical Twilight 6:14 AM EST 6:45 PM EST
Astronomical Twilight 5:44 AM EST 7:15 PM EST
Moon 4:51 PM EST (2/6) 6:00 AM EST (2/6)
Length of Visible Light 11h 30m
Length of Day
10h 37m
Waxing Gibbous, 98% of the Moon is Illuminated
Feb 6
Waxing Gibbous
Feb 7
Full
Feb 14
Last Quarter
Feb 21
New
Feb 29
First Quarter

Hourly Weather History & Observations

Time (EST) Temp. Windchill Dew Point Humidity Pressure Visibility Wind Dir Wind Speed Gust Speed Precip Events Conditions
12:55 AM 40.1 °F 36.9 °F 36.5 °F 87% 30.24 in 10.0 mi NNE 4.6 mph - N/A   Mostly Cloudy
1:55 AM 40.1 °F 38.0 °F 36.3 °F 86% 30.25 in 10.0 mi NNE 3.5 mph - N/A   Overcast
2:55 AM 39.6 °F 36.3 °F 35.4 °F 85% 30.25 in 10.0 mi NNE 4.6 mph - N/A   Overcast
3:55 AM 38.8 °F 34.6 °F 34.7 °F 85% 30.26 in 10.0 mi NE 5.8 mph - N/A   Mostly Cloudy
4:55 AM 38.3 °F 33.9 °F 33.8 °F 84% 30.26 in 10.0 mi NE 5.8 mph - N/A   Overcast
5:55 AM 38.1 °F 35.7 °F 33.4 °F 83% 30.26 in 10.0 mi NNE 3.5 mph - N/A   Mostly Cloudy
6:55 AM 37.8 °F 34.2 °F 33.8 °F 86% 30.27 in 10.0 mi NNE 4.6 mph - N/A   Scattered Clouds
7:55 AM 37.6 °F - 33.4 °F 85% 30.28 in 10.0 mi Calm Calm - N/A   Mostly Cloudy
8:55 AM 38.7 °F 35.2 °F 33.3 °F 81% 30.30 in 10.0 mi NNE 4.6 mph - N/A   Mostly Cloudy
9:55 AM 40.3 °F 36.3 °F 31.8 °F 72% 30.31 in 10.0 mi ENE 5.8 mph - N/A   Mostly Cloudy
10:55 AM 42.8 °F 40.1 °F 32.2 °F 66% 30.29 in 10.0 mi NE 4.6 mph - N/A   Scattered Clouds
11:25 AM 44.6 °F 41.4 °F 32.0 °F 61% 30.28 in 10.0 mi NE 5.8 mph - N/A   Light Drizzle
11:34 AM 44.6 °F 42.2 °F 32.0 °F 61% 30.28 in 10.0 mi East 4.6 mph - N/A   Scattered Clouds
11:55 AM 45.9 °F - 31.1 °F 56% 30.27 in 10.0 mi Calm Calm - 0.00 in   Scattered Clouds
12:55 PM 46.8 °F - 29.5 °F 51% 30.24 in 10.0 mi Variable 3.5 mph - N/A   Overcast
1:55 PM 47.1 °F - 31.6 °F 55% 30.21 in 10.0 mi Calm Calm - N/A   Overcast
2:55 PM 47.8 °F - 31.3 °F 53% 30.19 in 10.0 mi Variable 3.5 mph - N/A   Mostly Cloudy
3:55 PM 48.6 °F - 32.2 °F 53% 30.18 in 10.0 mi Calm Calm - N/A   Scattered Clouds
4:00 PM 48.2 °F - 32.0 °F 54% 30.18 in 10.0 mi Calm Calm - N/A   Mostly Cloudy
4:55 PM 48.2 °F - 32.5 °F 55% 30.18 in 10.0 mi Calm Calm - N/A   Overcast
5:55 PM 47.5 °F - 34.0 °F 59% 30.17 in 10.0 mi Calm Calm - N/A   Overcast
6:46 PM 46.4 °F - 35.6 °F 66% 30.16 in 10.0 mi Calm Calm - N/A   Overcast
6:55 PM 47.1 °F - 35.2 °F 63% 30.15 in 10.0 mi Calm Calm - N/A   Overcast
7:55 PM 47.3 °F - 35.2 °F 63% 30.15 in 10.0 mi Calm Calm - N/A   Overcast
8:09 PM 46.4 °F - 35.6 °F 66% 30.15 in 10.0 mi Calm Calm - N/A   Overcast
8:55 PM 47.1 °F - 36.3 °F 66% 30.15 in 10.0 mi Calm Calm - N/A   Mostly Cloudy
9:55 PM 47.3 °F - 36.9 °F 67% 30.14 in 10.0 mi Calm Calm - N/A   Overcast
10:11 PM 46.4 °F 45.2 °F 37.4 °F 71% 30.13 in 10.0 mi SE 3.5 mph - N/A   Overcast
10:47 PM 46.4 °F 43.5 °F 37.4 °F 71% 30.15 in 10.0 mi NW 5.8 mph - N/A   Overcast
10:55 PM 47.3 °F - 37.4 °F 68% 30.15 in 10.0 mi NW 4.6 mph - N/A   Overcast
11:55 PM 47.1 °F - 35.8 °F 65% 30.15 in 10.0 mi WNW 4.6 mph - N/A   Overcast